Location: Narragansett
(41.4496°N, 71.4488°W)
Time: 10:29:46
(UTC+00:00)

ISS - Visible Passes

Search period start: 20 September 2021 00:00
Search period end: 30 September 2021 00:00
Orbit: 419 x 423 km, 51.6° (Epoch: 20 September)

Date Brightness Start Highest point End Pass type
(mag) Time Alt. Az. Time Alt. Az. Time Alt. Az.
20 Sep -2.0 00:18:40 10° W 00:21:43 31° NNW 00:23:47 17° NNE visible
20 Sep -2.7 23:31:29 10° WSW 23:34:43 44° NNW 23:37:59 10° NE visible
21 Sep -1.0 01:10:00 10° NW 01:11:52 16° NNW 01:11:52 16° NNW visible
22 Sep -1.3 00:22:38 10° WNW 00:25:07 19° NNW 00:26:52 13° NNE visible
22 Sep -1.6 23:35:16 10° WNW 23:38:02 23° NNW 23:40:49 10° NE visible
23 Sep -0.7 01:13:49 10° NW 01:14:47 13° NNW 01:14:47 13° NNW visible
24 Sep -1.2 00:26:38 10° NW 00:28:39 15° N 00:29:40 13° NNE visible
24 Sep -1.2 23:39:19 10° NW 23:41:30 16° N 23:43:42 10° NNE visible
25 Sep -0.5 01:17:03 10° NNW 01:17:31 12° NNW 01:17:31 12° NNW visible
26 Sep -1.3 00:30:08 10° NNW 00:32:13 15° N 00:32:21 15° N visible
26 Sep -1.2 23:43:05 10° NW 23:45:04 14° N 23:47:02 10° NE visible
27 Sep -0.4 01:19:55 10° NW 01:20:10 11° NW 01:20:10 11° NW visible
28 Sep -1.5 00:33:07 10° NNW 00:35:01 19° N 00:35:01 19° N visible
28 Sep -1.6 23:46:16 10° NNW 23:48:35 17° NNE 23:49:51 14° NE visible
29 Sep -0.2 01:22:43 10° NW 01:22:51 11° NW 01:22:51 11° NW visible
29 Sep -1.4 22:59:21 10° NNW 23:01:27 15° N 23:03:32 10° NE visible
